Location: Emblem
(62.4273°N, 6.4710°E)
Time: 14:29:32
(UTC+01:00)

Altair - All Passes

Search period start: 27 January 2023 00:00
Search period end: 06 February 2023 00:00
Orbit: 1501 x 1683 km, 47.2° (Epoch: 26 January)

Date Brightness Start Highest point End Pass type
(mag) Time Alt. Az. Time Alt. Az. Time Alt. Az.
27 Jan - 01:12:55 10° WSW 01:21:30 34° S 01:30:09 10° SE night (unlit)
27 Jan - 03:16:30 10° WSW 03:24:06 25° SSW 03:31:42 10° SSE visible
27 Jan - 05:23:41 10° WSW 05:25:49 11° SW 05:27:57 10° SW visible
27 Jan - 20:46:40 10° SSE 20:51:39 15° SE 20:56:43 10° ESE visible
27 Jan - 22:45:41 10° SSW 22:53:41 29° SSE 23:01:48 10° ESE visible
28 Jan - 00:47:50 10° WSW 00:56:25 34° S 01:05:05 10° SE night (unlit)
28 Jan - 02:51:19 10° WSW 02:59:03 26° SSW 03:06:48 10° SSE visible
28 Jan - 04:57:40 10° WSW 05:00:51 12° SW 05:04:03 10° SSW visible
28 Jan - 20:22:11 10° SSE 20:26:41 14° SE 20:31:14 10° ESE visible
28 Jan - 22:20:45 10° SSW 22:28:37 28° SSE 22:36:38 10° ESE visible
29 Jan - 00:22:45 10° WSW 00:31:19 34° S 00:40:00 10° ESE night (unlit)
29 Jan - 02:26:09 10° WSW 02:34:00 27° SSW 02:41:53 10° SSE night (unlit)
29 Jan - 04:31:57 10° WSW 04:35:53 13° SW 04:39:50 10° SSW visible
29 Jan - 19:57:49 10° SSE 20:01:43 13° SE 20:05:39 10° ESE visible
29 Jan - 21:55:50 10° SSW 22:03:34 27° SSE 22:11:27 10° ESE visible
29 Jan - 23:57:41 10° WSW 00:06:14 34° S 00:14:55 10° ESE visible
30 Jan - 02:00:59 10° WSW 02:08:56 28° SSW 02:16:56 10° SSE night (unlit)
30 Jan - 04:06:23 10° WSW 04:10:55 14° SW 04:15:27 10° SSW night (unlit)
30 Jan - 19:33:37 10° SSE 19:36:45 12° SE 19:39:56 10° ESE visible
30 Jan - 21:30:56 10° SSW 21:38:31 26° SSE 21:46:16 10° ESE visible
30 Jan - 23:32:38 10° WSW 23:41:09 34° S 23:49:49 10° ESE visible
31 Jan - 01:35:50 10° WSW 01:43:53 28° SSW 01:52:00 10° SSE night (unlit)
31 Jan - 03:40:55 10° WSW 03:45:56 15° SW 03:50:57 10° SSW night (unlit)
31 Jan - 19:09:45 10° SE 19:11:48 11° SE 19:13:53 10° ESE visible
31 Jan - 21:06:04 10° SSW 21:13:29 25° SSE 21:21:04 10° ESE visible
31 Jan - 23:07:35 10° SW 23:16:04 34° S 23:24:42 10° ESE visible
01 Feb - 01:10:42 10° WSW 01:18:49 29° SSW 01:27:01 10° SE night (unlit)
01 Feb - 03:15:31 10° WSW 03:20:56 16° SW 03:26:22 10° S night (unlit)
01 Feb - 20:41:13 10° SSW 20:48:28 24° SSE 20:55:51 10° ESE visible
01 Feb - 22:42:33 10° SW 22:50:59 33° S 22:59:35 10° ESE visible
02 Feb - 00:45:35 10° WSW 00:53:45 30° SSW 01:02:02 10° SE visible
02 Feb - 02:50:10 10° WSW 02:55:57 17° SW 03:01:44 10° S night (unlit)
02 Feb - 20:16:23 10° SSW 20:23:26 23° SSE 20:30:37 10° E visible
02 Feb - 22:17:31 10° SW 22:25:54 33° S 22:34:28 10° ESE visible
03 Feb - 00:20:27 10° WSW 00:28:41 31° SSW 00:37:02 10° SE visible
03 Feb - 02:24:51 10° WSW 02:30:56 18° SW 02:37:04 10° S night (unlit)
03 Feb - 19:51:35 10° S 19:58:24 22° SE 20:05:22 10° E visible
03 Feb - 21:52:30 10° SW 22:00:50 32° S 22:09:20 10° ESE visible
03 Feb - 23:55:20 10° WSW 00:03:36 31° SSW 00:12:01 10° SE visible
04 Feb - 01:59:34 10° W 02:05:56 19° SW 02:12:21 10° S night (unlit)
04 Feb - 19:26:48 10° S 19:33:23 21° SE 19:40:07 10° E visible
04 Feb - 21:27:30 10° SW 21:35:45 32° SSE 21:44:12 10° ESE visible
04 Feb - 23:30:14 10° WSW 23:38:32 32° SSW 23:46:59 10° SE visible
05 Feb - 01:34:19 10° W 01:40:55 20° SW 01:47:35 10° S night (unlit)
05 Feb - 19:02:03 10° S 19:08:23 20° SE 19:14:50 10° E visible
05 Feb - 21:02:32 10° SW 21:10:41 31° SSE 21:19:04 10° ESE visible
05 Feb - 23:05:08 10° WSW 23:13:27 32° SSW 23:21:56 10° SE visible
